Location: Zapote
(9.9191°N, 84.0597°W)
Time: 17:24:07
(UTC-06:00)

Transit 2A - Pass Details

Date: 07 March 2021
Orbit: 602 x 957 km, 66.7° (Epoch: 16 April)

Event Time Altitude Azimuth Distance (km) Brightness Sun altitude
Rises 14:32:10 0° 162° (SSE) 3,550 9.5 46.3°
Reaches altitude 10° 14:36:15 10° 137° (SE) 2,546 8.6 45.3°
Maximum altitude 14:38:54 13° 110° (ESE) 2,275 8.2 44.7°
Drops below altitude 10° 14:41:27 10° 83° (E) 2,446 8.3 44.1°
Sets 14:45:12 0° 56° (NE) 3,294 8.9 43.2°
